Weather in Lebyazhje

Russia / Kirov Oblast     57°24′42″N   49°31′10″E
temp.,
°C
wind,
m/s
gust,
m/s
humid.,
%
clouds,
%
prec.,
mm/h
press.,
hPa
HPBL,
m
21 april, wed
wed2100:00−1ese387592 0.0 1029136
03:000ese3107187 0.0 1028193
06:00+2se51560100 0.0 1027558
09:00+6se71552100 0.0 1025948
12:00+5se71557100 0.3 1024953
15:00+5sse71552100 0.5 10231053
18:00+3sse81781100 1.6 1022989
21:00+2sse71697100 4.8 1021847
22 april, thu
thu2200:00+2sse71497100 1.0 1020804
03:00+3sse61494100 1.4 1020738
06:00+3s51296100 0.3 1020575
09:00+5ssw51189100 0.3 1021750
12:00+8s597399 0.0 1022998
15:00+9s61075100 0.0 10211170
18:00+8sse6148414 0.1 1022683
21:00+6s412926 0.6 1023419
23 april, fri
fri2300:00+4sse379727 0.0 1023157
03:00+3sse229855 0.0 102452
06:00+4se249623 0.0 1024125
09:00+9sse34779 0.0 1025591
12:00+13s345511 0.0 10241529
15:00+14sse334950 0.0 10231702
18:00+10se5107538 0.1 1024453
21:00+7se379044 0.1 1024144
24 april, sat
sat2400:00+6ese238852 0.0 102264
03:00+5ese399174 0.0 1021284
06:00+5e31089100 0.0 1020347
09:00+8e4774100 0.0 1018600
12:00+10e5668100 0.0 1015992
15:00+8ese5783100 0.1 1014970
18:00+6ese4793100 0.4 1013994
21:00+6ese4996100 0.9 1011752
25 april, sun
sun2500:00+6se4997100 0.3 1009470
03:00+6ese4996100 0.3 1006455
06:00+5se41093100 0.1 1004768
09:00+4sw5896100 4.4 1003664
12:00+5wsw51189100 1.5 10051054
15:00+8wsw7136367 2.4 10061935
18:00+6wsw5117596 0.4 1008938
21:00+3sw4128491 1.1 1009383